Akron, OH

5:34 AM EDT on April 25, 2018 (GMT -0400)
Akron Fulton International

Weather History for KAKR - August, 2014

Change the Weather History Date:

Friday, August 29, 2014

  Actual Average (KCAK) Record (KCAK)
Temperature  
Mean Temperature 66 °F -  
Max Temperature 82 °F 79 °F 96 °F (1953)
Min Temperature 52 °F 59 °F 41 °F (1982)
Cooling Degree Days 2    
Growing Degree Days 16 (Base 50)    
Moisture  
Dew Point 52 °F    
Average Humidity 62    
Maximum Humidity 89    
Minimum Humidity 35    
Precipitation  
Precipitation 0.00 in - - ()
Sea Level Pressure  
Sea Level Pressure 30.12 in    
Wind  
Wind Speed 3 mph (ESE)    
Max Wind Speed 7 mph    
Max Gust Speed -    
Visibility 10 miles    
Events      
Averages and records for this station are not official NWS values.
T = Trace of Precipitation, MM = Missing Value Source: NWS Daily Summary

Daily Weather History Graph

Daily Weather History Graph

Search for Another Location

Airport or City:

Astronomy

Aug. 29, 2014 Rise Set
Actual Time 6:49 AM EDT 8:03 PM EDT
Civil Twilight 6:21 AM EDT 8:31 PM EDT
Nautical Twilight 5:47 AM EDT 9:05 PM EDT
Astronomical Twilight 5:11 AM EDT 9:41 PM EDT
Moon 10:40 AM EDT (8/29) 9:57 PM EDT (8/29)
Length of Visible Light 14h 10m
Length of Day
13h 13m
Waxing Crescent, 15% of the Moon is Illuminated
Aug 29
Waxing Crescent
Sep 2
First Quarter
Sep 8
Full
Sep 15
Last Quarter
Sep 24
New

Hourly Weather History & Observations

Time (EDT) Temp. Dew Point Humidity Pressure Visibility Wind Dir Wind Speed Gust Speed Precip Events Conditions
12:54 AM 55.0 °F 51.1 °F 86% 30.16 in 10.0 mi Calm Calm - N/A   Clear
1:54 AM 57.9 °F 52.0 °F 81% 30.14 in 10.0 mi East 4.6 mph - N/A   Clear
2:54 AM 52.0 °F 48.9 °F 89% 30.14 in 10.0 mi Calm Calm - N/A   Clear
3:54 AM 53.1 °F 50.0 °F 89% 30.13 in 10.0 mi Calm Calm - N/A   Clear
4:54 AM 53.1 °F 48.9 °F 86% 30.13 in 10.0 mi Calm Calm - N/A   Clear
5:54 AM 55.0 °F 50.0 °F 83% 30.14 in 10.0 mi East 3.5 mph - N/A   Clear
6:54 AM 53.1 °F 48.9 °F 86% 30.15 in 10.0 mi North - - N/A   Clear
7:54 AM 55.9 °F 50.0 °F 80% 30.17 in 10.0 mi East 4.6 mph - N/A   Clear
8:54 AM 62.1 °F 52.0 °F 70% 30.17 in 10.0 mi Variable 4.6 mph - N/A   Clear
9:54 AM 64.9 °F 53.1 °F 65% 30.16 in 10.0 mi Variable 4.6 mph - N/A   Clear
10:54 AM 69.1 °F 54.0 °F 58% 30.16 in 10.0 mi SSE 6.9 mph - N/A   Clear
11:54 AM 73.0 °F 55.0 °F 53% 30.15 in 10.0 mi North - - N/A   Clear
12:54 PM 75.0 °F 53.1 °F 46% 30.13 in 10.0 mi ESE 6.9 mph - N/A   Clear
1:54 PM 77.0 °F 50.0 °F 39% 30.12 in 10.0 mi South 6.9 mph - N/A   Clear
2:54 PM 80.1 °F 51.1 °F 36% 30.11 in 10.0 mi Variable 4.6 mph - N/A   Clear
3:54 PM 79.0 °F 51.1 °F 38% 30.09 in 10.0 mi East 5.8 mph - N/A   Clear
4:54 PM 81.0 °F 52.0 °F 36% 30.08 in 10.0 mi South 5.8 mph - N/A   Clear
5:54 PM 80.1 °F 50.0 °F 35% 30.07 in 10.0 mi SE 4.6 mph - N/A   Clear
6:54 PM 79.0 °F 51.1 °F 38% 30.07 in 10.0 mi ESE 4.6 mph - N/A   Clear
7:54 PM 75.9 °F 53.1 °F 45% 30.07 in 10.0 mi Variable 3.5 mph - N/A   Clear
8:54 PM 73.0 °F 55.0 °F 53% 30.07 in 10.0 mi Calm Calm - N/A   Clear
9:54 PM 70.0 °F 55.9 °F 61% 30.08 in 10.0 mi Calm Calm - N/A   Clear
10:54 PM 69.1 °F 55.0 °F 61% 30.08 in 10.0 mi Calm Calm - N/A   Clear
11:54 PM 68.0 °F 55.0 °F 63% 30.08 in 10.0 mi Calm Calm - N/A   Clear